Theta_e
356 360 366 364 360 359 357 359 341 340 336 320 323 328 332 341 341 342 342 343 345 346 344 344 346 345 346 349 350 352 350 352 353 346 345 354 358 354 353 352 351 351 353 355 356 355 353 352 354 356 354 354 354 355 354 355 355 354 353 353 353 351 350 349 349 349 350 348 347 347 347 347 345 344 343 344 345 345 345 348 351 349 346 345 344 343 342 342 342 343 344 346 346 347 347 348 350
361 363 364 360 359 359 355 356 333 326 326 317 323 330 334 341 340 341 343 344 345 344 343 344 344 344 345 346 346 349 350 350 353 352 352 354 357 356 354 352 352 352 353 354 356 356 353 351 353 355 355 355 354 355 355 353 353 353 353 353 352 350 349 348 349 348 349 349 349 348 346 347 345 345 345 346 346 346 346 348 349 347 346 346 344 343 343 344 345 344 343 345 345 346 349 351 351
360 360 360 359 360 359 356 349 329 319 319 317 323 334 337 339 340 343 344 344 345 344 345 345 344 344 344 346 347 349 351 349 348 348 351 355 357 356 354 354 354 354 353 353 356 356 353 351 351 353 355 354 353 354 354 353 353 353 353 353 352 351 350 350 351 350 351 351 349 348 347 348 348 347 347 348 346 348 351 352 352 350 349 350 350 349 349 349 348 347 346 347 348 349 351 352 353
357 361 359 360 360 357 351 340 331 321 318 318 322 335 341 340 342 343 343 343 343 342 344 345 344 343 343 346 346 349 350 347 347 348 350 355 356 356 356 355 355 355 354 355 356 357 354 353 353 351 353 353 353 353 353 353 353 354 353 352 352 352 351 353 353 353 353 351 349 349 349 348 349 348 347 347 345 349 353 353 353 352 352 352 353 353 352 351 350 350 351 352 352 352 352 352 353
358 362 358 360 358 353 343 336 334 324 320 323 325 338 343 341 344 344 344 343 342 342 342 343 345 346 345 345 345 347 348 345 347 351 352 353 356 357 356 355 355 356 356 356 354 355 354 353 354 352 352 352 351 352 351 351 352 353 352 352 351 351 351 353 352 352 353 350 351 351 351 349 349 348 347 347 347 349 351 351 352 352 352 352 352 353 352 352 352 352 352 352 352 352 351 351 351
360 360 358 361 357 351 340 329 327 324 329 336 333 340 345 342 345 344 343 343 343 341 340 341 343 347 348 347 347 347 348 346 348 352 354 354 355 357 357 354 354 356 357 356 353 352 353 352 352 351 353 352 350 351 351 351 351 351 351 352 351 351 351 352 351 351 352 351 353 353 352 350 349 348 347 347 347 349 349 350 351 352 352 352 352 352 352 351 351 351 351 351 351 352 351 350 349
358 356 355 357 353 349 338 324 324 328 335 341 338 341 344 343 343 342 343 341 341 339 340 340 340 344 346 347 349 349 349 349 350 351 353 355 356 356 356 353 353 358 356 355 354 352 351 353 352 352 355 352 349 350 352 351 351 351 351 352 351 352 351 351 352 352 352 352 353 353 352 350 348 348 347 346 346 349 350 351 351 351 351 351 351 351 351 350 349 349 349 349 349 351 351 350 349
355 355 352 350 346 342 335 326 329 334 336 341 341 344 344 344 343 342 342 340 341 341 342 341 341 344 344 345 348 350 352 351 351 352 352 354 357 355 355 353 353 356 355 354 355 353 351 352 354 353 355 354 351 351 354 352 351 352 352 353 352 353 352 352 352 352 352 353 353 352 350 348 349 350 350 349 349 351 350 351 351 351 351 351 351 350 350 349 349 349 349 351 350 350 351 350 348
355 355 350 346 339 333 330 327 331 336 339 341 342 344 343 342 340 340 340 340 342 342 343 342 342 345 344 346 348 349 352 353 352 352 353 354 356 354 352 352 352 353 354 355 355 355 351 351 353 353 355 355 352 352 353 353 353 352 352 353 353 352 353 353 353 353 354 354 354 353 351 350 351 351 352 351 350 351 350 350 349 348 349 348 348 349 348 349 349 349 349 350 350 350 350 350 348
351 350 349 342 334 326 322 326 332 337 341 341 342 343 341 339 338 339 339 341 342 342 343 343 343 345 345 347 348 348 351 353 353 353 353 354 354 353 352 352 353 353 353 355 356 356 352 350 352 354 355 354 352 353 353 353 353 352 351 352 351 352 353 354 354 354 354 354 353 353 352 351 351 352 352 350 348 348 347 346 345 343 343 341 345 346 347 349 347 345 347 347 347 348 348 349 349
350 344 344 335 326 320 318 324 331 338 342 341 342 341 341 339 339 340 340 341 341 343 343 343 345 345 348 349 348 349 352 353 352 352 353 353 353 352 353 352 352 353 353 355 356 355 352 351 353 354 354 354 354 354 353 352 352 352 351 351 351 351 352 353 354 354 353 352 352 351 352 351 351 351 351 350 349 347 342 341 339 338 338 339 342 344 347 349 346 345 347 349 348 348 347 347 348
350 342 339 331 323 324 325 327 331 340 342 342 343 342 340 339 341 340 340 340 340 344 344 344 346 346 349 349 348 349 352 352 352 353 354 353 351 352 351 351 352 351 352 354 354 354 352 353 355 355 356 355 355 354 353 352 353 353 352 351 350 351 352 352 353 353 351 351 350 349 350 350 348 348 348 347 349 348 343 339 338 339 339 340 341 343 348 349 348 349 351 352 351 350 350 349 350
349 341 335 330 328 333 331 330 334 340 340 343 344 342 341 341 342 340 341 341 342 345 344 343 344 346 349 348 348 348 351 352 353 352 353 353 351 350 349 350 351 351 352 353 355 355 354 352 353 355 357 357 355 354 355 355 354 353 352 351 350 352 353 352 353 352 350 350 348 347 348 346 344 344 343 342 344 348 348 344 342 344 342 343 346 347 350 349 349 352 352 352 352 351 351 349 350
344 338 334 332 334 336 332 331 334 333 335 343 344 343 343 341 341 341 343 344 344 343 342 343 344 346 347 349 348 347 350 352 353 353 353 353 352 351 349 350 351 352 353 353 356 356 356 354 352 354 358 358 355 355 356 355 355 355 354 353 353 354 353 352 352 352 351 349 347 348 347 346 347 345 344 344 342 345 349 348 345 342 340 341 343 346 349 349 348 350 349 349 350 349 349 348 346
340 336 335 333 331 331 331 331 332 330 334 344 343 344 343 342 343 343 344 343 342 341 343 346 345 346 345 347 348 347 350 352 353 353 354 354 353 354 353 353 352 353 353 352 355 356 356 355 353 355 358 358 356 357 356 355 356 356 355 355 355 354 353 353 352 353 352 349 348 349 348 348 347 344 344 343 343 345 346 348 349 344 340 339 339 341 347 349 347 346 346 346 348 347 348 349 347
338 337 335 330 325 323 328 333 333 330 335 343 343 344 345 344 344 344 344 342 342 344 346 346 344 347 345 345 348 348 350 351 352 353 354 354 354 355 354 355 354 355 353 352 354 355 354 354 354 355 357 357 356 356 357 357 356 356 355 355 355 354 354 354 354 355 354 351 351 349 347 349 348 345 347 345 344 347 348 348 350 348 344 343 343 342 344 347 346 344 345 345 346 345 346 348 347
336 338 333 325 323 322 327 334 332 331 337 343 342 344 345 344 344 344 344 343 345 348 349 346 344 346 344 345 348 349 349 349 351 352 353 354 354 355 353 352 354 356 355 354 354 354 353 354 354 354 354 356 356 355 357 358 355 355 353 352 353 352 353 352 351 353 354 353 353 351 348 351 352 351 351 350 349 348 350 349 347 348 347 346 345 343 341 343 343 343 343 344 345 345 345 346 348
336 339 330 322 325 326 329 335 333 334 340 341 341 343 344 345 345 345 345 345 347 350 349 347 348 347 346 348 349 349 349 349 350 350 352 353 352 353 351 349 353 355 355 355 354 354 355 355 353 353 354 355 356 356 356 356 354 353 352 352 352 351 350 347 347 351 352 353 354 353 351 351 353 354 354 354 353 352 353 350 348 348 350 349 345 344 344 342 341 341 343 344 346 344 345 347 350
336 337 328 325 330 331 332 334 333 336 339 339 340 342 342 345 345 345 348 348 349 351 351 350 350 349 348 349 349 349 349 349 349 348 350 352 351 351 351 350 351 352 352 354 355 356 355 354 353 353 354 355 357 356 355 355 354 354 354 355 354 352 351 350 352 354 355 354 353 351 353 353 350 354 357 355 355 355 354 352 352 352 352 351 345 345 347 344 342 345 347 347 349 347 348 351 351
334 333 329 329 332 332 333 333 335 337 338 339 340 339 341 342 342 343 347 348 347 350 351 352 352 350 348 348 349 350 349 349 348 348 348 350 350 348 349 350 350 351 351 351 352 354 353 352 352 352 354 355 354 353 354 355 354 354 355 355 354 354 355 354 354 355 356 355 352 351 354 355 352 353 355 353 354 354 351 349 350 351 350 351 347 347 349 345 344 350 352 351 353 351 350 352 351
332 331 331 332 333 332 334 335 336 337 337 339 339 339 341 340 340 340 343 345 346 349 351 351 352 351 349 347 349 351 350 350 349 348 348 349 349 346 346 348 349 350 350 349 350 353 353 353 353 352 354 354 351 350 351 353 356 355 352 353 353 354 356 355 353 353 355 355 353 353 355 355 354 354 356 354 354 353 349 347 347 346 345 348 349 347 346 343 346 351 351 351 352 351 349 350 349
332 333 333 333 335 334 335 336 337 338 338 338 339 340 339 339 342 343 345 348 349 350 351 350 350 350 349 348 349 351 351 350 349 350 349 349 349 348 347 347 347 349 351 351 350 352 354 353 353 353 354 354 351 349 349 351 355 354 349 351 351 350 352 352 354 354 354 354 353 352 352 353 353 353 356 355 354 352 349 347 345 344 344 346 346 345 344 344 346 347 348 348 349 349 347 347 347
332 333 334 335 335 336 337 337 337 337 337 338 339 339 340 342 343 346 350 352 351 350 351 350 350 350 350 350 350 350 350 350 350 351 350 349 350 350 348 347 347 347 350 351 351 352 354 354 354 353 353 354 353 351 350 351 353 352 349 351 350 349 350 350 354 354 352 354 354 352 351 351 350 349 351 352 352 350 347 346 344 344 345 346 346 345 346 346 346 346 347 346 346 347 347 346 347
333 334 335 336 336 337 337 338 338 337 338 337 337 338 340 344 345 348 351 352 351 351 351 350 351 352 351 349 348 349 350 351 351 351 351 350 349 350 349 348 347 346 348 350 351 353 353 353 354 353 353 352 352 351 351 351 352 352 351 352 352 352 353 352 353 354 353 355 354 353 350 349 348 346 347 349 348 347 346 346 345 345 346 346 346 346 347 346 346 347 347 346 346 347 347 348 347
334 335 336 336 336 337 337 338 337 336 336 335 337 339 341 343 344 347 351 353 352 351 350 350 350 351 349 347 348 350 351 352 352 351 352 351 350 351 350 349 348 347 347 349 350 352 353 352 353 352 352 352 351 351 352 352 352 352 352 352 354 355 354 351 352 354 353 354 353 352 352 351 350 346 345 346 345 345 347 347 347 347 346 346 346 346 346 346 345 346 346 345 346 348 348 348 347
334 336 336 336 337 337 337 336 335 335 336 337 338 340 341 341 343 347 351 351 352 352 351 350 350 349 349 348 349 352 351 352 352 352 353 351 351 351 351 350 349 348 347 349 349 351 353 353 353 352 351 353 352 352 352 352 352 353 354 354 355 357 355 352 352 352 353 354 352 350 351 354 353 348 344 345 346 347 347 348 350 349 347 346 346 344 344 344 342 344 345 344 344 347 348 347 346
334 336 336 337 337 337 336 335 335 337 337 338 339 339 340 341 343 346 349 350 351 352 351 350 349 349 350 348 350 354 353 352 353 352 353 352 352 352 353 352 350 350 349 349 350 351 353 353 353 353 352 354 353 353 353 353 355 354 356 356 355 356 356 355 353 351 353 354 352 350 351 354 356 352 347 347 347 345 345 348 351 349 348 346 344 343 344 344 343 341 343 344 344 345 345 345 346
334 337 338 337 337 337 337 337 337 338 339 338 338 339 340 340 342 346 349 349 351 352 353 351 350 350 350 350 351 354 354 353 353 351 353 353 352 351 352 353 352 352 351 350 351 351 352 353 353 353 353 355 354 353 353 354 356 356 357 357 355 355 356 356 354 352 354 355 354 353 352 351 353 351 348 347 345 343 345 348 350 348 347 346 345 344 344 344 346 344 343 343 341 341 341 341 343
336 338 338 337 336 337 338 338 339 339 339 339 338 337 338 341 342 345 348 348 350 352 352 352 352 351 351 351 350 353 354 353 352 350 351 350 348 349 349 350 350 349 348 350 351 351 352 352 352 353 353 355 355 353 353 354 355 357 357 356 356 356 356 356 355 355 356 355 354 353 351 348 348 349 347 345 344 344 346 349 351 348 345 346 346 346 343 341 345 346 345 342 338 336 337 336 338
337 338 338 336 333 335 340 338 339 340 339 341 339 328 331 343 343 345 347 346 349 349 349 350 351 352 350 351 351 352 354 354 354 352 352 351 350 351 348 348 349 348 348 349 351 352 352 353 352 353 354 355 356 354 352 353 355 357 356 355 356 356 355 354 355 356 356 355 352 352 353 350 349 351 350 347 345 344 347 350 350 347 341 341 343 344 344 341 342 344 343 342 339 337 336 336 336
337 336 336 336 326 327 339 339 338 340 337 340 338 324 329 345 343 344 346 346 348 348 349 349 349 351 350 352 353 353 355 355 356 355 355 355 354 355 354 353 353 352 353 353 353 353 353 356 356 356 357 356 356 356 354 354 355 357 356 355 355 356 354 354 354 353 355 355 354 354 353 352 351 352 352 352 350 349 351 351 349 347 343 340 341 341 342 341 340 342 343 343 342 340 339 338 336
338 329 324 331 325 326 339 338 337 340 337 339 340 328 332 343 343 344 345 344 347 347 349 349 349 351 351 352 353 353 355 357 358 357 357 358 358 358 358 358 357 357 358 357 356 356 357 359 358 357 358 358 357 357 357 356 357 358 358 355 354 356 355 354 353 353 353 354 355 355 354 353 353 353 352 353 353 353 353 353 351 351 348 345 342 341 341 342 342 343 345 344 343 342 342 343 340
336 328 317 323 324 325 334 337 338 339 338 339 338 335 337 342 343 343 344 344 346 347 348 349 350 351 352 353 354 354 355 358 359 359 359 360 359 359 359 360 359 359 358 358 358 358 359 358 357 356 356 358 357 356 357 356 357 359 358 356 354 355 355 354 353 356 356 354 356 356 353 353 354 353 353 353 354 354 354 353 352 351 349 348 345 344 344 344 345 346 345 343 343 341 341 345 342
326 327 321 323 326 325 327 334 339 338 339 338 337 339 339 341 343 343 344 344 345 347 347 348 351 351 353 354 353 355 357 357 359 360 360 360 360 360 360 360 360 361 359 360 360 358 358 357 356 355 355 355 355 355 356 356 356 356 356 356 355 354 355 356 355 357 358 356 357 356 351 350 351 351 350 351 353 353 353 352 351 350 349 347 346 345 346 346 347 346 344 341 341 342 342 344 342
319 320 319 320 325 326 326 332 338 339 338 339 338 341 342 343 344 343 343 343 344 346 346 348 350 352 354 355 354 355 356 357 359 360 361 361 360 360 359 359 360 361 361 361 360 358 357 357 355 355 355 354 354 354 353 354 356 355 355 356 356 356 357 356 354 356 358 354 353 353 348 345 347 351 349 347 349 350 351 350 349 348 347 346 345 345 345 346 346 345 344 343 343 344 344 344 343
326 325 322 320 320 324 330 334 337 339 338 339 340 339 342 343 344 344 342 344 345 345 346 347 349 352 353 355 356 356 356 357 359 359 360 360 360 360 359 359 359 359 360 359 359 359 357 357 356 356 356 355 354 354 353 354 357 357 357 356 356 359 356 354 353 353 356 354 352 352 349 346 347 349 347 342 341 344 346 348 348 346 345 345 344 344 345 345 345 344 344 343 343 343 342 342 342
331 329 325 323 321 322 332 336 336 338 335 335 342 342 344 344 344 345 342 344 346 345 347 347 348 350 350 355 356 355 356 355 356 358 359 359 359 361 360 359 359 358 358 359 359 358 357 357 357 356 356 355 355 357 357 356 357 358 358 357 355 355 350 349 351 351 352 352 350 349 347 348 349 349 348 345 343 342 342 345 346 346 345 344 343 343 343 344 344 343 342 342 341 341 341 341 342
330 328 323 321 321 324 333 336 335 337 334 333 341 342 343 346 344 345 344 344 346 345 346 347 348 349 350 353 352 352 353 350 351 355 358 357 357 360 361 359 359 359 359 359 358 358 358 357 357 357 356 354 356 358 358 358 359 358 355 353 351 348 345 345 347 346 346 347 347 348 348 349 350 350 350 350 349 348 347 346 347 346 346 344 343 343 342 342 342 341 341 341 341 342 341 342 343
328 327 322 318 322 326 331 335 335 336 332 332 340 339 341 347 344 345 344 343 345 346 346 347 348 349 349 349 348 349 350 349 349 351 354 356 356 358 359 358 357 358 358 358 358 357 358 358 357 357 356 357 359 358 358 359 358 355 352 350 349 346 344 343 343 342 342 343 344 348 350 349 348 347 347 347 348 349 349 348 348 348 347 346 345 344 343 343 342 342 342 341 342 342 343 343 343
328 326 319 316 323 324 321 328 335 336 332 333 340 337 340 348 345 346 345 341 344 344 344 347 346 348 348 346 348 348 348 350 349 347 351 354 355 357 357 357 357 356 357 356 357 358 358 359 357 357 358 360 360 357 357 357 354 352 351 350 347 343 341 340 341 339 338 340 339 341 345 345 345 345 344 344 344 345 346 346 346 346 347 346 346 345 344 344 343 343 343 343 343 343 344 344 344
326 327 321 318 324 324 321 329 335 333 332 335 336 328 333 348 348 348 347 343 343 342 344 347 346 347 346 346 347 348 348 349 349 347 349 352 353 355 356 357 357 356 356 355 355 358 358 358 357 356 357 358 358 357 356 352 350 349 349 345 341 340 339 339 340 338 336 337 336 336 339 342 344 344 344 343 343 343 344 343 343 344 345 347 347 348 348 347 347 345 344 344 345 345 345 345 344
320 326 327 325 327 327 327 331 330 323 322 331 332 319 324 348 352 349 347 345 346 345 346 347 347 348 346 346 347 347 347 346 348 347 347 350 352 354 356 357 356 355 355 353 354 357 358 357 358 356 355 355 354 354 350 344 344 344 342 340 339 339 338 339 341 338 338 338 335 336 338 340 343 344 344 344 344 344 345 345 344 345 345 346 349 351 351 350 349 348 346 345 345 345 344 343 344
315 323 330 330 330 328 327 328 324 316 316 329 333 320 319 335 345 348 345 345 349 348 347 348 349 350 347 346 346 346 346 343 345 347 347 351 351 353 356 355 354 354 353 354 355 358 358 357 358 355 354 353 351 348 343 340 341 341 340 339 339 339 338 340 340 339 340 339 336 337 338 339 341 343 343 343 344 345 345 345 345 345 345 345 347 350 350 350 348 348 347 345 344 343 342 341 343
317 327 331 329 329 328 327 327 322 319 322 327 332 326 318 320 332 344 344 344 348 347 347 347 348 352 349 347 346 345 346 343 343 347 348 350 351 352 354 355 353 351 353 355 356 358 358 357 355 353 352 351 348 345 341 340 340 340 339 338 338 340 339 339 338 337 339 339 338 339 339 339 341 342 343 343 343 344 344 344 344 345 345 345 346 348 348 348 347 346 345 343 341 340 341 342 342
326 333 331 328 329 328 329 327 321 323 322 317 323 328 320 316 325 340 346 342 343 345 346 345 345 348 349 348 347 346 346 346 344 346 349 349 351 351 352 353 350 348 353 356 356 358 358 356 354 352 349 347 345 343 342 343 340 339 339 339 339 340 339 338 336 336 339 340 339 339 339 340 341 341 341 341 342 342 342 343 343 343 343 342 343 345 345 345 344 344 344 342 341 341 342 344 344
330 333 332 330 331 330 331 329 321 320 319 314 318 324 320 317 321 329 335 333 339 346 346 345 344 345 347 346 347 346 347 348 346 346 349 350 350 351 351 351 348 349 354 355 355 358 357 355 352 350 347 345 345 344 344 344 341 340 340 340 339 338 337 337 336 336 338 339 339 338 339 340 340 340 340 340 341 340 339 341 341 341 341 341 342 342 342 343 343 343 343 342 342 342 343 343 344
331 332 332 330 330 331 331 328 322 317 316 316 317 320 320 317 318 324 330 332 339 345 345 345 343 342 345 345 344 345 347 348 348 347 349 351 350 350 350 350 349 350 354 355 355 356 356 353 349 348 345 344 345 345 344 343 341 340 339 338 338 336 335 336 337 337 338 339 339 339 339 339 339 340 339 339 339 338 338 339 339 339 339 339 340 339 339 339 339 339 339 340 342 342 342 343 343
331 332 329 322 322 324 322 319 320 316 313 316 318 320 319 314 317 326 334 337 338 339 342 343 342 342 344 345 343 344 346 346 347 348 350 352 351 351 351 350 350 352 354 355 354 354 353 350 348 347 345 344 345 344 342 341 340 340 338 337 337 336 336 337 337 337 338 338 338 338 338 337 338 339 339 339 338 338 339 339 339 338 337 337 337 337 337 337 337 337 337 339 341 342 342 344 345
331 328 321 315 314 316 314 313 315 314 313 317 320 319 316 314 322 331 335 336 336 337 338 338 342 344 344 346 345 344 345 345 347 349 350 352 353 354 352 350 353 355 355 354 352 351 350 348 347 346 344 345 345 343 341 339 339 340 339 337 337 337 337 337 337 337 337 338 337 337 336 336 337 338 338 338 338 338 338 339 338 338 337 337 337 337 337 337 337 337 337 337 338 339 340 342 344
327 322 316 313 313 314 314 313 314 314 312 316 321 320 315 314 324 333 334 333 334 336 337 337 342 346 347 347 346 345 344 345 349 350 350 353 353 354 354 353 356 357 355 353 351 349 349 347 346 345 346 346 344 340 338 336 337 338 338 337 338 339 338 337 338 337 337 337 337 336 335 335 337 337 337 338 338 338 338 338 337 337 337 337 337 337 336 336 337 336 336 336 336 337 338 339 341
327 328 323 315 312 314 314 312 312 313 312 314 319 320 313 312 323 335 334 334 335 334 336 338 340 345 348 349 347 346 344 346 349 349 349 352 351 354 356 354 357 358 353 350 350 348 348 346 345 346 346 344 341 339 337 335 336 338 338 338 339 339 338 337 338 337 337 336 336 335 336 337 337 337 337 337 338 338 337 337 337 336 336 336 336 336 335 335 336 335 335 335 336 336 337 338 338
326 331 324 315 317 318 313 312 313 312 312 314 315 317 319 322 331 339 335 335 336 334 335 337 338 340 344 349 350 348 346 347 349 347 347 348 349 355 356 353 355 356 350 348 349 348 347 345 344 344 344 342 340 339 338 336 336 338 339 339 338 338 338 338 338 337 336 335 335 336 337 337 337 337 337 337 337 337 337 337 336 336 335 335 335 335 335 335 335 335 335 334 335 335 336 337 337
324 323 317 320 328 325 313 311 314 312 312 314 313 314 320 324 329 334 335 334 334 335 335 335 338 340 341 348 354 352 348 349 351 351 349 348 351 354 354 352 352 350 348 348 349 349 347 345 344 343 342 342 341 340 339 339 338 338 339 340 338 337 337 337 337 336 335 334 335 336 336 337 337 337 336 336 336 336 336 336 336 336 335 335 334 334 334 334 334 334 334 333 334 335 335 335 336
323 317 319 327 330 327 318 313 314 314 312 313 312 312 315 315 319 330 336 335 333 335 336 336 338 341 343 347 352 354 351 349 351 354 350 346 349 353 353 352 350 347 345 346 350 350 347 344 344 343 342 343 342 341 341 340 340 339 339 339 338 337 336 336 336 335 334 334 335 335 335 336 336 336 336 336 335 336 336 335 335 335 335 334 334 334 333 333 334 335 334 334 333 333 332 333 334
327 323 328 327 317 316 317 313 313 314 314 314 313 313 313 312 316 328 333 334 334 335 336 336 335 339 345 347 349 352 352 348 349 354 352 346 348 354 354 351 349 346 342 344 349 349 345 344 344 343 343 343 343 343 342 340 339 339 338 338 336 336 337 336 336 335 334 334 335 335 335 335 335 335 335 335 335 335 335 334 334 334 333 333 333 333 333 333 333 335 335 335 334 332 334 335 334
328 328 331 327 320 316 316 315 314 313 313 313 313 312 312 316 324 331 333 335 335 333 335 337 335 335 342 346 347 351 351 350 349 350 352 350 350 354 353 348 346 342 340 345 348 345 343 344 343 343 343 343 343 342 341 339 339 339 339 338 337 337 337 337 336 334 334 334 334 334 334 334 334 334 334 334 334 335 334 334 334 333 333 333 333 333 333 333 334 336 336 336 335 335 337 337 335
323 320 320 322 321 321 320 318 316 314 312 312 313 312 312 322 334 334 333 334 333 333 334 336 336 334 337 342 347 351 353 354 353 350 350 351 352 352 351 349 345 341 343 345 345 342 341 343 343 342 342 342 342 342 341 340 338 339 339 338 338 338 337 337 336 335 334 334 333 333 333 334 334 334 334 334 334 334 334 334 334 333 334 334 335 335 334 334 335 336 336 336 336 336 336 336 335
325 321 319 320 320 318 316 315 315 315 313 311 313 312 312 326 337 333 333 333 332 334 334 335 336 335 335 338 343 351 355 355 355 354 352 353 352 349 349 348 345 343 346 345 343 343 341 343 344 341 341 341 341 342 341 341 339 337 338 338 337 337 337 337 336 335 334 332 331 332 332 332 333 334 334 334 334 333 334 334 334 334 334 335 336 336 335 335 334 334 336 336 335 335 335 336 335
Wind_Speed
6 6 8 8 11 11 6 5 1 3 5 10 10 10 10 11 11 11 14 12 10 10 9 10 10 8 7 9 12 12 11 10 7 4 7 10 15 19 24 27 21 19 20 16 16 17 17 19 18 18 19 20 21 21 20 20 21 22 22 22 22 22 22 22 22 22 21 20 19 18 18 17 16 16 15 14 14 13 13 13 12 11 11 10 10 9 9 8 8 8 8 7 7 6 7 7 7
9 8 9 10 12 8 3 4 2 7 7 11 11 10 10 11 14 14 14 14 11 11 11 11 11 11 11 11 12 12 12 13 12 10 12 17 18 17 22 26 23 21 21 18 17 17 18 18 19 19 18 19 20 20 20 20 21 21 21 21 21 21 21 21 20 20 19 18 18 17 16 16 15 14 14 13 13 13 12 12 12 10 10 10 9 9 8 9 8 8 7 7 6 6 6 6 5
10 9 7 9 10 7 4 3 4 8 9 11 10 11 13 13 15 15 15 15 13 11 11 9 9 11 11 12 13 12 12 14 17 15 12 17 16 16 20 21 21 21 21 18 17 17 18 19 18 19 18 19 19 19 20 20 20 20 20 20 20 20 20 20 19 19 18 17 16 16 15 14 14 13 13 13 12 12 12 12 12 11 10 10 10 9 9 9 9 8 7 7 6 6 5 4 4
10 10 7 7 5 4 2 4 6 8 10 10 9 11 13 14 15 15 14 14 12 11 10 10 10 11 13 15 14 12 13 13 17 15 10 14 15 18 19 18 17 18 18 17 16 16 18 19 18 19 18 18 18 18 19 19 18 18 18 18 18 18 19 19 18 18 17 16 14 14 14 14 13 12 12 12 11 11 12 11 11 11 11 10 10 10 10 10 9 8 7 6 6 5 5 4 3
10 9 7 7 3 2 0 7 7 8 10 9 9 12 14 15 15 13 13 13 11 11 11 10 10 11 13 13 10 9 12 13 18 16 14 17 18 19 18 19 18 15 15 15 16 16 18 20 19 19 18 17 17 17 17 17 17 17 17 17 17 17 18 18 17 17 16 15 15 13 13 13 12 12 11 11 11 11 11 11 11 11 11 10 10 10 10 9 8 8 6 6 5 5 5 4 3
9 9 8 7 3 3 2 8 9 10 11 10 10 12 14 14 14 14 14 13 11 12 13 11 12 13 12 12 11 9 11 12 15 15 17 20 18 18 17 20 20 15 14 14 16 17 17 18 19 19 17 16 17 17 16 16 16 17 16 16 17 17 17 16 16 15 15 14 15 14 12 12 12 11 10 10 11 11 10 10 10 10 10 10 9 9 9 8 7 7 5 5 4 4 4 3 2
8 6 4 4 3 2 5 11 10 11 12 13 12 13 15 13 13 13 13 12 12 13 13 12 12 13 11 10 11 11 13 13 14 16 20 21 18 18 17 19 20 16 16 16 16 17 17 16 17 18 16 15 16 16 16 16 17 17 16 16 16 16 15 15 15 14 14 13 14 14 13 12 11 10 9 9 10 10 10 9 10 10 9 9 9 8 7 7 6 5 5 4 4 3 3 2 2
8 4 1 2 1 3 7 11 11 11 13 14 14 14 13 12 10 11 13 12 12 12 12 12 12 12 12 12 11 12 14 15 17 21 23 21 18 18 16 18 20 17 17 17 16 17 16 15 16 18 17 15 15 16 16 16 16 17 16 16 15 14 14 14 14 13 13 13 13 13 12 11 11 11 10 10 10 10 9 9 8 8 8 8 7 7 6 6 5 5 5 4 4 3 2 3 3
8 4 3 3 3 7 8 11 12 12 13 14 13 12 11 11 10 12 14 12 11 12 12 11 12 12 14 15 12 11 14 17 20 22 22 20 17 17 15 15 18 18 18 17 16 16 16 15 15 16 17 16 15 15 15 15 16 17 16 16 16 14 14 14 14 13 13 13 13 12 11 11 10 10 10 10 10 9 8 8 7 6 6 6 6 5 5 4 3 2 2 2 3 3 3 3 4
5 3 4 1 5 7 8 10 11 12 13 13 12 12 11 11 11 12 13 13 12 12 13 13 13 14 14 14 11 10 14 18 20 20 19 18 16 16 15 14 15 17 16 16 15 15 15 15 15 16 18 17 16 15 16 16 16 17 16 15 15 15 14 14 13 13 13 12 12 12 11 10 9 8 8 7 7 6 6 5 4 4 3 3 3 3 4 3 1 1 1 2 3 4 4 4 5
3 4 4 1 6 6 8 10 10 12 13 12 12 12 10 11 11 11 12 13 12 12 15 13 13 14 13 12 9 11 16 18 19 19 18 17 16 16 15 14 14 15 15 15 14 14 16 15 14 16 17 18 17 16 17 18 17 16 16 15 15 15 14 14 13 12 12 11 10 10 10 9 8 7 6 5 4 3 3 3 3 2 2 2 2 2 3 2 3 3 4 5 6 6 7 7 7
5 3 3 3 6 6 7 10 11 12 13 11 11 11 9 11 10 11 12 13 12 11 12 12 11 11 12 11 8 13 17 16 17 19 18 16 16 15 15 14 14 14 14 14 14 15 16 15 14 14 16 17 17 16 17 18 17 17 16 15 15 14 13 13 12 11 11 11 10 8 8 8 7 7 6 6 5 4 2 2 2 1 1 1 1 1 2 3 4 5 6 7 7 7 8 9 9
6 3 3 4 6 7 8 9 10 11 10 10 10 9 8 10 11 11 11 12 11 9 12 12 12 11 11 11 9 11 15 16 17 17 17 15 15 15 14 15 14 14 14 14 15 16 17 16 15 14 16 17 16 17 18 18 18 17 16 15 14 13 12 13 12 11 11 11 10 9 9 7 7 7 7 7 8 7 4 2 1 1 2 1 1 2 4 5 5 6 8 7 8 7 8 8 8
5 2 2 4 5 7 7 7 8 9 8 10 10 8 8 9 11 10 9 10 10 11 12 11 12 12 11 10 9 9 12 17 17 16 15 14 15 14 14 15 14 14 13 13 14 16 17 17 15 16 17 17 17 18 19 19 19 18 16 15 15 13 12 12 11 11 10 9 10 9 8 7 5 5 5 5 6 7 7 4 4 4 4 3 3 3 4 6 7 7 9 9 9 8 8 9 8
4 3 2 3 5 6 4 5 8 8 8 10 9 8 10 9 9 9 8 10 11 11 9 9 8 8 11 11 9 10 15 18 17 15 14 13 14 13 14 14 14 13 12 12 12 14 15 15 15 17 18 17 16 18 19 20 20 19 17 16 15 14 13 12 10 11 9 7 6 6 5 6 5 5 6 5 5 6 6 6 5 6 6 5 5 5 5 7 9 9 9 10 10 9 8 9 9
5 5 2 3 4 6 5 5 7 7 8 10 9 9 10 9 8 8 9 9 11 9 4 7 5 3 11 12 12 18 20 19 17 15 14 13 13 13 13 14 14 12 11 11 12 12 13 13 14 15 17 17 15 15 16 18 18 18 17 16 14 13 13 11 10 10 9 6 4 5 5 7 6 6 8 7 7 8 6 5 5 6 7 7 7 7 7 8 11 11 10 10 10 10 10 10 9
5 6 3 4 4 6 6 6 5 7 10 11 10 9 9 9 8 7 9 10 10 8 4 6 5 4 12 15 19 24 22 21 18 17 14 12 12 12 12 11 13 12 11 11 11 11 12 12 13 13 14 15 16 15 15 16 16 17 17 15 14 13 12 11 10 9 8 7 6 5 5 7 7 5 7 8 7 7 5 4 5 6 7 8 9 9 9 9 11 12 11 11 10 10 10 9 9
6 5 2 2 5 6 6 8 7 9 12 10 9 8 9 8 9 8 9 10 9 7 7 8 7 9 16 20 25 24 22 22 20 19 16 13 11 11 12 11 11 12 11 11 11 11 11 12 12 12 12 13 15 14 14 15 15 15 15 14 13 11 12 11 9 8 8 8 7 6 6 7 7 7 7 6 6 6 5 5 6 7 8 9 10 10 11 11 11 12 12 12 11 11 10 8 7
7 4 2 4 7 9 8 9 7 10 12 10 10 9 9 8 8 6 6 10 8 6 9 10 11 14 19 22 24 24 22 20 19 19 17 15 14 13 12 11 11 10 11 11 11 12 12 12 11 10 11 11 11 10 12 12 12 12 12 12 10 9 10 10 8 8 7 7 7 6 6 6 6 7 6 5 5 5 7 8 8 8 9 11 11 10 11 11 11 12 12 12 12 11 9 7 8
5 4 3 6 7 9 8 7 7 11 13 10 10 9 9 7 5 5 6 10 8 7 9 10 13 15 18 20 22 24 22 19 18 17 16 14 13 14 13 12 11 10 11 11 11 12 12 12 11 10 11 10 9 7 7 8 9 10 9 9 9 8 8 8 8 8 8 7 6 5 4 5 6 7 7 7 6 7 9 10 11 11 11 11 11 10 10 10 10 11 12 11 11 10 8 8 9
2 3 5 8 7 7 6 7 9 11 11 10 10 9 9 7 4 4 6 8 7 7 9 11 14 16 18 19 20 21 20 19 17 15 15 13 11 12 13 12 12 12 11 10 11 12 11 10 11 10 9 9 8 7 6 6 7 8 8 8 7 7 6 7 7 7 9 8 5 5 5 5 5 6 6 7 7 9 11 11 11 12 11 10 11 10 9 10 9 9 12 12 11 11 10 10 10
2 7 7 6 6 7 6 8 10 10 9 9 9 9 9 6 5 6 2 4 6 6 10 13 15 16 18 18 19 19 18 19 17 15 14 13 12 10 10 11 12 12 11 10 11 12 11 9 10 8 8 8 7 7 7 6 5 6 7 6 5 5 5 5 5 5 6 6 5 6 5 4 5 6 5 6 7 9 11 11 11 11 11 10 10 10 10 11 10 8 12 15 14 14 14 12 10
1 7 4 4 7 9 8 9 9 9 9 8 8 9 8 8 9 9 8 9 9 9 13 15 16 17 18 18 18 17 16 16 16 16 15 14 13 11 11 11 11 12 11 10 9 10 11 10 9 8 7 7 7 6 6 6 5 5 6 5 5 4 4 5 5 5 5 5 6 6 5 5 6 6 6 6 5 6 9 9 9 10 10 10 9 11 11 11 11 9 12 15 15 17 17 14 11
3 7 4 6 9 9 9 9 8 9 9 9 8 8 9 9 10 9 10 11 10 13 14 16 18 19 18 17 15 15 16 15 16 16 15 13 13 12 12 12 11 11 11 11 10 10 11 11 9 9 8 7 7 6 6 5 4 5 5 5 5 4 4 5 5 5 5 7 6 6 5 4 5 5 3 3 4 8 9 8 8 10 11 12 11 12 12 11 11 12 14 15 15 16 16 16 16
7 6 6 8 9 9 9 9 9 10 9 8 8 8 11 11 11 10 11 11 12 14 15 16 17 17 16 15 15 14 14 14 14 14 13 12 12 12 11 11 11 11 10 11 10 10 11 11 11 10 9 8 7 6 6 6 5 5 4 4 4 4 5 6 6 5 5 7 6 5 2 2 4 3 2 4 9 9 8 9 9 9 11 13 13 12 12 12 12 13 14 14 16 16 15 17 19
8 6 7 9 10 10 10 10 11 10 7 8 10 11 13 13 12 11 11 12 13 15 16 16 16 16 15 13 14 13 12 13 14 14 12 11 11 11 11 11 11 11 11 11 10 11 11 11 12 11 10 9 8 7 7 6 6 5 5 5 5 5 5 6 7 6 6 6 5 3 2 4 5 4 5 8 11 9 8 9 8 9 10 11 12 12 11 12 13 13 13 14 16 18 17 17 19
8 8 10 10 10 9 10 11 11 10 8 8 10 11 11 11 9 9 11 12 13 15 16 16 15 15 14 13 13 12 12 12 12 12 12 11 10 11 11 10 10 11 11 12 11 10 10 11 11 11 10 9 8 7 6 6 5 5 4 4 5 5 5 6 6 6 6 6 5 3 3 6 7 6 8 9 11 11 11 10 9 10 12 12 12 12 10 9 11 12 12 13 14 17 19 19 20
10 10 12 11 10 8 9 11 10 8 8 9 11 11 10 8 9 9 11 12 13 15 15 15 14 13 13 13 13 11 11 12 13 12 12 11 11 11 11 11 11 11 11 12 11 10 10 11 10 10 10 9 8 8 7 6 5 5 5 5 5 5 5 6 6 6 6 6 5 5 6 8 9 7 10 12 13 14 14 14 13 15 16 15 15 13 12 9 8 9 9 11 13 15 18 20 21
10 10 11 12 11 9 9 10 9 7 8 9 9 10 10 9 11 12 12 12 13 14 14 13 13 13 13 13 12 10 11 13 13 13 12 12 12 13 13 13 13 12 11 12 12 11 11 10 11 11 11 11 10 9 8 7 6 5 5 5 5 5 6 6 6 6 6 7 7 8 8 11 12 10 13 16 15 14 15 14 13 18 21 19 18 17 16 14 9 9 10 12 15 16 18 20 22
10 11 8 9 10 9 9 8 9 8 7 6 6 4 8 10 11 13 12 12 13 13 14 13 12 12 12 12 11 10 12 12 12 12 13 12 11 13 14 14 14 13 12 12 13 12 10 9 9 9 10 11 10 9 9 7 6 5 5 6 5 5 7 7 7 7 7 8 9 9 10 12 12 11 14 17 17 17 15 13 14 20 25 23 21 21 20 18 15 16 18 18 18 19 19 21 22
10 10 8 7 7 8 8 7 10 9 5 8 8 2 6 10 12 12 12 12 13 12 13 13 12 12 11 11 11 11 11 12 12 12 12 11 9 11 13 12 13 12 10 9 10 10 8 7 6 6 8 10 10 10 9 8 7 6 6 6 6 6 7 7 8 8 8 9 9 10 13 15 15 14 17 18 18 16 13 14 17 21 26 26 24 23 22 21 22 22 22 21 22 21 20 22 20
9 8 7 7 5 8 10 8 9 7 6 10 7 3 7 10 12 12 11 11 12 12 12 13 12 13 11 11 11 10 11 12 12 13 12 11 10 10 11 11 11 11 9 8 9 9 9 7 6 7 8 10 11 10 9 8 7 7 6 6 7 7 7 7 8 8 9 11 11 13 16 17 17 18 20 19 17 16 14 16 18 17 20 25 27 25 23 23 23 21 19 19 19 21 19 18 16
7 7 7 7 6 7 10 9 8 4 5 6 4 3 8 9 11 12 12 11 11 11 12 12 12 13 11 10 10 9 10 11 11 13 13 12 11 10 11 11 11 11 10 10 10 10 10 10 9 9 9 10 10 10 9 8 7 7 7 7 7 7 7 7 7 7 10 13 13 13 12 12 13 13 15 16 15 15 15 14 15 15 14 18 23 23 20 19 20 19 20 20 20 24 24 19 18
7 8 7 9 9 6 8 9 9 5 5 6 1 4 9 11 12 12 13 12 11 11 11 12 11 11 11 10 10 9 10 10 10 12 14 12 12 11 11 11 11 11 11 11 11 10 11 11 10 10 9 9 9 9 9 8 8 7 6 6 7 7 7 7 7 8 10 12 11 10 8 7 8 8 8 9 10 10 12 11 12 13 13 13 15 17 17 17 19 19 22 25 24 24 25 21 20
9 9 7 9 9 7 6 6 10 9 7 5 4 6 10 12 12 12 13 12 10 11 11 12 12 11 11 10 10 10 10 10 10 13 14 13 13 12 11 12 11 10 11 11 11 10 10 10 10 9 8 8 8 7 7 7 7 7 6 6 6 7 7 7 7 8 9 10 9 8 7 6 6 6 6 7 7 7 8 9 10 11 12 12 13 15 17 19 19 20 21 24 23 21 20 19 18
10 10 9 10 9 8 8 7 9 10 8 6 6 7 10 11 12 12 12 12 10 10 10 11 12 11 10 9 9 10 10 9 11 14 15 14 13 13 12 12 11 10 10 11 11 10 10 10 10 9 8 8 7 7 7 7 6 6 5 6 7 7 7 6 6 8 9 9 8 7 7 7 7 6 6 8 9 8 7 7 8 9 11 11 13 15 16 17 18 19 19 20 21 21 20 20 20
10 11 10 10 9 8 11 11 11 10 8 6 7 8 10 11 11 12 12 11 11 11 11 10 11 12 11 11 10 10 10 10 12 14 15 14 13 13 12 11 11 11 11 11 11 11 10 10 10 10 9 8 8 7 6 6 5 4 4 5 6 6 5 4 6 7 7 7 6 7 7 8 8 7 8 9 9 10 10 8 8 8 9 10 12 14 14 15 16 16 16 16 18 19 19 19 18
6 10 9 8 8 9 13 14 12 10 7 4 7 7 11 12 11 13 13 12 11 11 11 11 12 12 12 12 12 11 9 10 12 13 14 15 14 13 12 11 12 12 12 12 11 11 10 10 9 9 9 7 7 6 5 4 3 3 3 3 4 5 4 4 5 5 5 6 7 6 6 6 7 8 9 9 9 10 10 9 9 9 9 11 12 13 13 15 16 16 15 16 16 17 17 16 14
8 9 9 8 8 9 12 13 11 8 6 5 8 7 9 13 12 12 13 12 10 11 11 11 11 12 12 12 13 13 12 12 13 13 14 15 15 15 13 12 13 13 13 12 11 11 10 10 9 8 8 7 6 4 4 2 2 2 1 1 3 3 3 2 2 3 3 5 6 6 4 4 7 8 9 9 9 11 11 12 13 13 13 14 14 14 14 15 15 15 15 16 15 15 16 16 15
9 8 8 8 9 9 7 9 12 10 9 6 8 8 7 11 12 12 12 12 11 12 13 12 11 11 12 13 13 13 14 13 13 13 14 15 15 15 14 13 14 13 13 13 12 11 10 9 9 8 7 6 5 4 4 3 2 2 1 2 2 2 3 2 1 2 3 4 6 6 4 6 7 7 8 9 9 10 11 13 14 15 16 17 17 17 17 16 16 16 16 15 14 14 15 14 14
9 11 9 9 10 8 5 7 11 11 10 8 7 7 5 7 10 10 10 11 11 12 13 13 12 12 12 13 13 13 13 13 14 13 13 14 15 16 15 15 14 14 13 13 12 11 10 9 9 8 7 6 5 5 4 2 1 1 0 2 3 2 3 3 2 4 4 4 6 6 5 6 7 7 8 8 9 10 11 12 12 13 15 15 16 16 15 16 17 17 18 17 15 16 16 15 15
10 13 12 13 11 9 10 11 10 7 8 9 9 7 4 7 8 8 8 10 10 10 12 12 12 13 13 13 13 14 14 13 13 13 13 15 16 16 16 16 15 14 13 12 12 11 10 10 9 8 7 6 5 4 2 1 0 1 2 3 3 3 3 3 3 5 5 5 6 6 6 6 6 7 7 7 8 9 10 11 11 12 12 12 12 11 13 15 15 15 15 14 14 15 16 16 17
7 12 14 16 9 4 10 10 9 5 8 10 12 8 4 7 9 10 11 12 11 11 13 14 12 12 13 13 13 14 14 14 13 13 14 15 17 17 17 17 16 15 14 13 12 11 11 11 10 9 7 6 5 4 2 1 1 2 3 3 3 3 3 2 3 4 3 4 5 5 6 6 6 6 6 7 7 8 9 10 10 11 11 11 11 10 12 14 12 12 13 12 12 14 14 16 18
3 6 15 12 8 7 11 5 5 8 10 9 11 9 7 7 9 12 14 14 15 15 15 16 15 14 15 14 14 15 15 14 14 14 14 15 17 18 18 18 17 15 15 13 13 12 12 12 11 9 8 7 6 4 2 1 1 2 3 3 3 2 2 3 4 4 3 4 4 4 5 6 6 6 6 7 7 8 9 9 9 10 11 11 11 10 12 12 10 11 13 12 13 15 13 15 18
2 3 8 11 8 11 10 5 6 9 7 5 6 7 8 7 7 11 15 16 16 16 17 16 17 17 17 16 16 16 16 15 14 14 14 16 18 19 19 18 17 16 16 14 14 13 13 13 11 10 9 7 6 4 3 2 1 1 2 2 2 2 3 4 5 5 4 3 4 4 5 6 6 6 7 7 7 8 9 9 9 9 10 11 11 10 12 13 11 10 12 11 12 14 13 14 16
4 1 5 6 7 10 9 8 9 8 5 5 7 8 7 7 8 10 12 12 13 14 15 15 17 19 19 18 18 17 16 14 15 14 14 17 19 19 19 19 18 17 16 15 14 14 14 13 12 11 10 7 6 5 4 3 2 1 1 1 2 3 4 5 5 5 4 4 4 5 5 5 6 6 7 7 7 8 9 10 10 9 10 10 10 11 12 13 11 10 11 11 11 13 14 14 15
4 6 6 5 7 7 6 7 7 6 6 8 12 14 11 7 8 9 11 12 11 11 13 15 17 19 20 19 18 19 17 14 14 15 15 18 20 20 19 19 19 17 17 16 15 15 15 14 13 12 9 7 6 5 5 4 3 2 1 2 2 4 5 5 4 4 4 4 4 5 5 6 6 7 7 7 7 8 9 9 9 10 10 11 11 11 12 12 12 12 13 13 13 13 14 15 15
4 8 8 6 7 4 4 6 5 7 8 8 14 16 14 8 7 7 8 12 12 11 12 16 19 20 19 19 19 19 17 16 15 15 15 17 18 19 20 19 19 18 18 18 17 16 15 14 13 12 9 8 7 6 5 3 2 2 1 2 2 3 4 4 4 4 3 4 5 5 6 6 7 7 7 7 7 7 7 7 8 8 9 9 11 12 13 13 13 13 13 13 14 14 13 13 13
9 9 7 7 6 5 6 7 6 7 8 8 11 12 10 7 7 9 9 9 12 13 11 12 16 19 20 19 19 18 17 17 17 15 15 15 15 17 19 20 20 19 19 19 18 16 15 14 13 12 10 9 8 6 4 3 3 3 2 2 2 3 3 3 3 3 3 3 4 5 6 7 7 8 8 8 8 7 7 7 7 7 8 8 10 11 12 13 13 13 13 13 14 14 14 13 14
10 9 8 8 6 6 7 7 6 8 9 9 8 6 6 7 6 9 11 9 8 8 9 9 11 16 19 20 19 18 18 18 16 15 15 14 14 16 19 21 21 19 20 20 18 17 15 14 13 12 11 10 8 6 4 4 4 3 2 3 2 2 3 3 3 3 3 3 4 5 7 7 8 8 8 8 8 8 7 7 7 8 8 9 10 11 12 12 13 12 12 13 13 13 13 14 15
10 9 8 7 7 6 6 6 6 7 7 7 8 4 5 6 2 3 3 1 7 7 5 8 8 10 14 18 19 18 19 18 16 16 16 15 17 20 20 20 20 19 21 20 18 17 16 14 14 13 12 11 8 7 5 4 4 3 3 3 3 3 3 3 3 2 3 4 5 6 7 7 8 8 9 9 9 8 8 8 8 9 9 9 10 11 11 12 12 12 12 12 12 12 12 13 14
9 8 8 7 8 8 5 5 6 5 5 4 6 4 6 5 1 2 2 2 5 6 4 7 9 9 11 13 18 18 17 17 17 17 17 17 19 22 21 21 20 19 20 20 18 18 17 15 15 13 12 11 9 7 6 5 4 3 3 3 3 3 3 3 3 3 3 4 5 6 7 8 8 8 9 9 9 9 9 9 10 9 9 10 10 11 11 12 12 12 12 12 12 12 11 12 14
7 8 10 7 6 7 7 7 6 6 7 4 5 6 6 5 6 10 10 7 8 7 6 9 10 11 12 13 15 17 16 15 16 16 17 17 17 20 19 19 21 22 21 20 19 19 18 17 16 14 13 11 9 7 6 5 4 4 4 4 3 3 4 4 4 3 3 4 5 6 7 7 8 8 8 9 9 10 10 10 11 10 10 11 11 11 12 12 12 12 12 12 12 12 12 13 14
6 7 9 6 3 5 6 5 5 6 7 6 6 8 6 5 5 7 11 7 7 8 8 8 8 11 13 13 13 15 15 14 15 16 17 17 16 19 20 20 22 24 23 21 21 20 19 17 16 15 13 12 10 8 7 6 4 4 4 4 4 4 4 4 4 4 4 5 5 6 7 7 8 8 8 9 9 10 10 11 11 11 11 11 11 11 12 12 12 12 12 11 11 11 12 13 14
9 4 7 8 5 5 5 5 5 6 6 6 7 8 7 6 4 7 10 7 5 6 6 6 8 10 11 12 13 15 16 16 16 15 15 15 16 19 23 23 23 25 25 25 24 21 19 18 16 15 14 12 10 9 7 6 5 5 4 4 4 4 5 5 5 5 5 6 6 6 7 7 8 8 9 9 10 10 11 11 11 12 12 12 12 11 12 13 12 12 13 12 11 12 13 13 14
10 6 5 6 5 5 6 5 6 6 6 6 6 5 5 4 4 8 8 4 2 3 5 5 7 8 9 11 12 13 15 14 14 15 15 15 18 21 24 25 26 28 27 27 24 22 20 18 16 15 14 12 11 9 8 6 5 5 5 5 5 5 5 6 6 6 6 6 7 8 8 9 9 9 9 10 10 11 11 12 12 13 13 13 13 12 12 13 12 12 12 12 12 13 13 13 15
10 8 7 8 6 5 4 6 7 7 5 5 5 5 2 3 4 4 4 3 2 4 4 5 6 7 7 9 10 11 13 13 13 14 14 15 19 22 23 25 28 29 28 27 25 23 20 19 17 16 15 13 11 10 9 7 6 6 6 6 6 6 6 7 7 7 7 7 8 9 10 10 9 10 11 11 11 12 12 12 13 13 14 14 14 13 12 12 12 11 12 12 12 13 14 15 16
12 10 10 10 8 6 6 7 8 7 6 5 5 6 2 7 7 5 5 2 2 2 3 4 5 5 6 7 9 11 12 14 15 16 15 15 19 22 21 23 28 28 29 29 27 23 21 19 18 16 15 14 12 11 10 8 7 6 6 7 7 7 7 7 7 7 7 8 9 10 10 10 10 11 11 11 12 13 13 13 14 14 14 14 14 14 12 11 11 11 11 11 11 13 15 16 17
Wind_Direction
293 286 277 275 271 283 269 236 127 112 93 80 80 78 78 89 98 93 88 87 83 76 77 79 81 95 89 74 81 75 52 48 39 68 100 114 121 115 121 125 122 119 118 115 116 121 124 123 123 124 126 127 126 127 128 126 124 123 123 122 122 124 125 123 121 121 120 120 118 117 115 110 109 108 106 104 105 108 109 106 103 106 111 112 110 110 107 103 98 92 92 94 96 97 97 103 105
277 271 271 276 270 276 272 239 109 95 89 81 76 74 79 82 82 76 77 79 80 83 83 81 81 87 91 92 96 84 68 71 79 83 100 117 116 114 124 125 123 126 125 121 116 120 127 129 127 125 126 128 128 127 127 127 125 124 124 124 124 126 126 123 121 121 119 118 117 117 115 112 111 110 109 109 109 106 103 104 102 101 102 103 103 103 103 99 96 95 97 98 96 94 94 99 106
280 286 286 281 270 255 248 225 101 92 85 82 79 75 77 76 78 79 79 82 88 95 86 83 85 88 96 97 90 81 81 86 95 98 110 119 115 117 121 119 120 123 122 120 117 120 129 132 128 126 127 129 131 130 128 129 128 127 127 126 125 126 125 122 119 119 119 119 119 118 119 117 117 116 117 115 111 106 103 101 101 99 99 99 98 99 99 96 95 95 93 90 84 80 79 80 92
288 291 302 296 285 251 230 109 86 84 85 84 87 82 83 83 84 83 83 84 87 91 86 82 73 69 78 88 89 86 90 97 101 102 112 116 116 120 123 121 118 117 116 117 116 116 127 131 128 127 129 130 132 131 130 131 131 130 130 128 124 126 126 124 122 121 122 123 121 120 123 123 122 122 121 118 112 108 105 102 101 99 98 97 96 94 92 90 90 90 86 82 78 77 71 60 63
286 289 296 291 303 287 36 87 79 77 82 87 94 90 89 90 93 93 89 86 83 86 91 91 80 70 67 76 89 92 97 106 104 101 109 117 121 123 125 125 119 115 114 117 117 115 124 129 127 126 127 131 133 131 132 134 135 134 132 129 125 126 129 128 126 126 125 125 124 122 122 121 123 123 120 118 116 112 106 103 101 98 97 94 91 88 85 85 83 81 78 76 74 71 67 60 51
288 302 291 274 310 311 74 87 82 77 78 87 95 94 93 92 93 91 85 82 80 81 85 86 92 92 72 65 69 77 98 110 109 111 117 122 128 126 123 122 116 112 113 118 117 118 124 128 127 123 123 129 132 133 137 141 142 140 136 133 132 131 133 131 128 126 125 125 125 125 124 120 120 120 119 119 117 112 105 102 101 99 98 94 90 87 85 82 79 78 72 67 64 60 58 57 46
304 318 301 275 287 286 91 86 82 80 80 84 91 94 95 96 97 98 96 90 83 83 87 90 98 101 90 86 79 75 89 101 111 118 121 123 129 126 123 119 114 112 114 117 116 121 125 126 127 123 127 131 129 135 144 149 147 144 139 137 137 135 134 131 129 128 127 128 127 128 127 122 121 121 120 118 116 112 109 108 105 103 99 95 89 84 79 70 62 55 46 44 45 52 45 23 23
296 288 274 269 205 109 85 84 83 84 85 83 84 91 97 101 103 100 96 93 93 96 95 94 97 92 89 95 93 89 88 94 107 116 122 125 129 126 125 122 117 116 117 118 117 122 126 128 130 129 135 136 132 137 144 150 148 145 140 137 138 136 135 135 136 135 133 132 131 131 127 122 123 125 124 120 120 119 120 116 110 107 102 98 93 86 79 67 54 42 32 24 19 27 18 356 1
290 280 245 248 112 90 85 88 88 87 89 91 91 93 95 93 92 92 94 94 96 98 93 93 98 94 94 94 95 99 95 100 110 116 124 126 128 127 128 128 124 123 121 122 122 125 130 135 137 136 139 139 138 141 145 150 149 145 141 141 142 143 142 142 143 142 141 138 134 130 124 122 124 127 127 125 124 122 121 117 118 117 110 105 93 85 81 73 69 61 45 8 2 357 343 333 331
290 265 254 216 95 91 92 91 92 94 94 97 98 98 97 95 95 95 98 96 90 90 89 89 95 100 102 99 99 105 106 114 118 119 124 125 128 130 128 132 131 127 123 125 127 128 134 138 139 142 145 143 142 146 148 150 152 148 147 149 146 147 149 148 148 147 144 137 132 127 122 120 120 122 120 119 121 123 124 125 135 138 130 108 83 73 67 51 18 9 358 319 323 321 319 310 307
266 207 230 113 96 93 96 97 97 99 99 100 99 98 96 95 97 95 96 93 89 95 102 103 102 103 101 95 94 107 114 122 123 123 127 128 130 129 125 131 134 130 127 129 133 137 138 139 138 145 150 147 146 152 153 150 155 154 153 154 151 154 154 150 149 144 139 128 123 118 116 115 113 114 110 110 112 123 142 145 153 149 153 123 76 65 47 2 339 349 344 329 323 318 311 301 296
267 209 177 109 93 90 97 102 105 106 105 104 99 97 100 100 97 98 101 101 104 109 110 110 109 108 107 101 102 118 125 125 124 126 129 134 133 131 129 129 132 131 132 132 135 140 140 142 142 144 148 150 153 154 156 153 156 157 156 158 155 157 152 148 148 141 135 127 124 122 123 128 134 141 138 142 143 154 178 168 170 161 179 151 79 26 8 316 324 343 337 331 322 316 311 307 302
260 248 119 102 99 102 103 104 113 114 108 101 97 101 108 103 94 94 101 109 117 114 101 109 119 113 105 106 117 129 130 127 127 130 133 136 133 136 136 132 135 135 136 135 136 141 144 148 147 143 144 154 160 154 158 159 159 161 161 161 157 159 155 150 152 144 142 146 152 155 155 160 164 164 164 170 162 159 182 223 242 233 254 281 311 326 330 304 314 330 322 321 314 312 313 308 302
264 267 113 112 107 106 111 120 117 109 105 105 106 105 100 96 100 105 105 101 94 94 103 122 126 111 108 117 131 140 135 133 132 133 137 134 133 137 135 133 137 138 140 141 141 145 147 150 150 149 148 155 161 157 161 162 164 167 163 161 161 165 161 156 157 151 159 174 174 170 168 175 174 174 185 193 176 168 183 210 254 270 268 273 272 282 303 299 305 312 310 310 307 309 309 304 300
274 267 159 124 115 112 108 110 106 106 108 109 110 105 101 98 104 105 100 99 91 99 120 126 121 123 140 144 144 144 139 137 135 134 136 134 134 135 133 133 135 140 143 144 145 147 148 150 151 154 155 159 162 161 165 167 169 169 165 164 168 170 165 162 164 162 182 198 180 176 180 192 198 205 215 216 208 204 198 197 240 279 283 277 277 282 294 295 297 300 303 306 305 306 305 302 301
256 269 181 137 142 127 118 118 113 115 111 111 115 113 108 95 88 82 90 110 113 121 143 120 126 143 141 147 141 140 140 138 137 134 135 136 134 136 139 137 137 143 146 148 149 150 152 152 152 153 156 160 162 165 168 170 172 170 170 171 172 172 168 169 171 172 195 209 191 200 209 218 225 221 223 229 224 218 215 198 220 270 289 292 294 295 295 291 294 299 301 300 302 305 304 301 300
235 259 206 150 145 123 129 130 115 114 114 121 129 121 110 98 96 95 104 121 121 119 99 102 138 135 126 137 134 137 141 141 143 141 141 140 140 143 144 143 146 149 151 156 156 155 158 158 156 155 157 159 163 171 171 172 172 171 175 175 176 177 174 179 183 183 203 216 212 227 243 242 250 255 245 247 246 233 230 224 232 260 279 290 295 297 299 294 294 298 297 296 298 300 298 297 298
225 233 199 120 100 89 87 89 102 125 122 126 133 119 111 113 112 122 128 118 108 110 106 100 100 96 110 126 132 137 144 147 151 150 148 147 153 152 145 157 163 156 156 162 162 161 165 162 158 160 164 165 165 168 170 175 175 174 179 179 181 186 186 192 196 195 213 225 221 232 251 257 267 282 280 272 271 263 255 264 271 276 280 286 293 299 302 299 297 298 295 294 294 294 292 290 285
243 239 111 65 68 71 76 89 107 123 118 123 127 112 110 119 119 141 144 112 107 113 119 116 103 102 113 127 135 138 145 151 155 156 154 155 163 158 151 163 164 159 163 165 168 166 166 163 158 162 167 168 166 161 165 175 178 181 186 184 184 191 193 196 197 197 213 229 238 246 249 258 276 289 294 294 289 283 285 290 293 292 285 285 291 295 298 303 305 303 301 294 288 292 285 268 262
251 274 115 81 73 78 82 90 91 109 120 124 115 105 107 117 132 158 148 123 127 126 129 131 125 128 129 132 137 141 148 153 159 162 159 160 165 160 158 163 162 168 169 164 170 170 167 163 160 164 164 164 165 165 167 171 178 184 190 190 186 192 196 198 202 203 210 221 242 256 250 261 287 298 298 307 305 293 298 303 303 301 293 287 293 299 301 306 306 301 302 293 285 286 263 245 252
319 353 91 94 99 95 86 95 95 105 115 113 111 111 106 107 119 135 158 147 130 133 148 143 138 141 137 138 142 145 149 152 162 166 160 164 169 165 161 164 165 167 170 168 171 174 171 165 164 169 167 166 167 170 177 171 173 182 190 194 187 190 199 207 212 213 217 221 229 243 253 265 287 299 302 318 319 307 311 315 310 306 301 294 298 304 305 309 309 306 309 305 295 285 263 249 250
355 51 61 82 106 104 98 100 98 105 112 114 119 111 96 92 82 64 57 112 98 116 137 134 137 142 141 143 144 147 151 155 164 166 164 167 174 175 161 167 169 162 172 178 174 174 172 170 169 173 175 174 174 173 180 179 175 184 191 197 197 201 212 222 230 232 230 221 219 235 248 261 281 297 302 316 325 326 324 318 312 312 311 308 309 314 322 324 321 320 321 321 315 304 291 276 263
171 80 59 66 94 101 105 108 115 125 122 111 108 107 102 95 84 66 50 64 78 97 117 128 135 139 141 143 146 150 153 159 164 166 170 169 174 183 171 174 177 168 172 176 181 181 176 175 174 177 182 181 182 181 185 188 188 194 192 200 211 209 215 233 242 248 250 232 234 251 250 258 280 297 310 319 321 313 303 292 294 307 317 322 324 322 327 323 314 320 328 326 318 309 306 301 291
90 97 107 93 97 111 117 123 129 117 106 100 105 114 106 93 88 83 77 78 89 102 114 127 132 137 142 145 150 152 154 163 166 167 174 171 174 183 178 177 182 181 175 173 183 191 184 181 179 181 188 191 194 196 199 201 201 202 198 205 216 215 219 238 246 250 260 253 257 263 254 264 279 290 323 336 292 283 287 288 288 293 301 312 318 321 325 317 313 328 338 336 325 314 313 312 308
98 102 106 107 111 119 122 123 119 106 103 98 94 93 87 92 96 91 91 96 104 111 121 128 133 139 141 147 152 151 158 167 166 167 177 176 173 180 182 179 183 188 186 182 184 193 190 184 186 187 192 196 200 207 211 215 214 214 217 219 224 228 234 247 253 251 256 267 281 281 280 298 285 294 317 290 284 291 302 296 286 283 290 300 308 319 328 323 321 328 335 339 333 322 315 312 311
100 127 123 127 123 127 135 128 117 108 103 97 99 98 97 107 107 99 102 110 116 120 125 129 135 141 143 151 149 149 163 169 164 167 176 178 175 180 184 182 185 190 193 194 193 196 193 189 193 191 195 199 202 209 213 220 222 225 231 235 239 237 245 254 253 253 254 264 282 300 319 280 268 268 265 271 279 294 304 288 277 276 280 289 297 307 315 316 317 319 323 328 330 324 316 311 305
118 147 135 128 126 138 137 122 114 108 107 110 111 110 119 130 117 104 111 119 125 127 129 134 140 141 146 150 146 153 167 166 162 166 172 174 177 182 186 183 186 194 196 199 201 200 197 198 201 197 199 201 205 212 215 225 229 233 240 245 252 248 256 263 259 262 263 259 257 249 248 247 242 240 253 259 260 269 277 272 266 265 270 280 288 292 294 301 304 304 307 312 321 322 318 315 305
141 149 137 133 134 136 123 117 119 120 118 113 113 116 123 121 103 106 123 130 132 132 133 139 141 141 148 150 145 157 165 161 164 171 170 170 176 181 186 185 187 197 201 202 202 201 202 202 204 205 204 204 209 214 216 225 229 236 245 250 258 263 268 269 270 273 269 269 262 243 243 246 245 247 258 261 259 262 264 260 257 263 269 275 277 277 276 280 292 295 294 297 305 310 312 316 312
149 155 146 141 142 141 138 135 126 126 115 114 133 130 107 96 106 119 131 135 135 136 136 140 144 144 151 150 148 159 162 164 168 169 166 170 177 176 182 185 184 192 200 201 198 198 199 196 200 205 204 203 207 213 218 223 224 230 242 249 256 266 271 270 273 275 270 271 271 265 267 269 267 263 260 262 266 269 263 253 248 263 274 278 277 276 275 275 273 270 270 280 293 299 298 302 306
162 166 156 151 154 152 158 150 134 129 102 126 178 136 97 105 123 132 138 140 140 141 141 145 149 149 153 152 155 161 160 167 169 167 166 171 174 169 177 182 178 186 193 192 192 195 195 190 198 201 198 201 206 213 220 221 218 223 233 245 250 252 264 269 268 271 273 274 276 273 270 273 272 263 260 264 268 267 259 250 248 264 274 277 277 277 277 277 271 266 266 270 282 292 289 287 292
176 166 161 180 171 148 162 168 156 145 129 188 203 118 106 126 133 141 148 149 148 146 142 147 149 150 154 153 159 159 160 171 168 166 164 164 169 166 173 179 177 184 186 182 187 193 194 191 197 203 205 207 210 215 220 221 217 219 227 238 242 241 249 256 259 262 264 266 271 270 268 271 271 264 266 268 265 260 252 255 259 265 271 272 274 275 275 273 271 271 271 270 278 284 281 281 284
182 171 178 197 184 149 163 179 184 170 159 207 228 98 116 133 143 150 155 159 156 150 146 149 150 150 154 154 160 157 158 169 165 165 165 162 168 167 170 176 177 179 177 178 186 191 194 195 196 203 209 208 210 213 215 219 217 217 223 229 234 236 238 241 249 254 255 260 265 271 278 282 277 269 267 265 260 258 256 262 265 264 268 271 273 274 271 268 265 265 265 262 267 271 269 270 270
179 196 194 186 201 165 156 174 198 190 150 200 250 153 135 134 150 154 160 169 160 153 153 156 153 152 157 155 157 155 156 165 166 164 165 167 170 168 168 172 173 172 171 175 179 182 184 186 190 196 200 201 204 206 208 212 211 214 217 220 226 228 233 241 246 249 257 265 267 271 286 292 280 269 263 261 259 260 260 260 263 263 264 267 269 267 263 260 257 255 257 255 257 263 263 253 251
177 210 201 184 202 174 154 179 183 180 196 205 225 125 127 134 156 159 163 171 163 158 158 159 158 155 158 158 157 159 163 166 169 166 166 170 170 167 165 167 170 168 170 175 174 175 176 178 185 192 194 196 198 198 201 202 200 208 216 219 223 229 243 252 254 254 257 266 266 266 287 297 281 272 266 266 262 261 262 257 258 260 259 258 260 258 254 253 252 253 256 258 260 263 261 252 249
190 210 204 185 196 182 173 188 167 172 215 201 123 114 129 143 160 161 166 173 167 163 159 159 162 159 160 166 162 163 171 171 169 168 168 169 166 166 164 163 166 166 169 173 172 174 175 176 181 185 190 194 195 191 193 197 195 202 218 234 240 248 253 247 249 253 247 256 263 259 273 278 271 267 264 276 273 260 260 261 261 259 257 257 257 256 254 253 253 254 257 260 262 261 258 257 256
191 210 212 187 180 186 192 190 162 173 213 192 145 135 140 153 164 165 168 171 167 165 164 160 161 162 165 175 169 165 174 171 166 167 167 167 166 166 164 162 164 164 167 169 171 174 175 177 178 181 189 195 199 195 195 200 200 205 227 251 251 250 255 248 250 248 233 244 259 259 270 269 265 272 279 293 292 278 270 262 258 256 252 252 253 253 253 254 255 257 261 263 263 264 263 259 257
185 206 222 196 175 183 191 183 161 177 219 198 151 143 152 164 170 171 168 168 173 171 169 167 163 164 167 174 172 168 172 169 167 169 168 168 167 167 165 164 165 163 165 166 169 172 175 179 180 182 187 196 204 206 208 210 212 223 241 257 253 245 250 251 255 253 242 257 278 280 282 270 265 276 279 285 289 286 285 270 255 252 248 248 250 252 253 254 257 259 264 267 264 266 268 264 259
216 205 218 207 187 192 187 169 154 179 227 197 151 163 171 171 176 176 171 173 180 176 174 175 171 167 165 170 170 167 174 172 165 167 171 171 169 168 168 169 168 165 165 167 169 172 175 179 182 186 188 195 205 208 220 224 213 225 237 257 269 267 260 249 261 275 274 283 302 301 287 273 277 280 272 269 266 267 272 268 260 254 247 248 251 253 256 256 257 259 262 264 264 265 266 266 259
254 216 208 208 193 191 183 161 150 177 225 187 167 199 183 167 181 182 174 180 180 178 181 180 178 171 166 171 171 169 174 169 161 168 177 175 170 169 171 174 169 166 167 168 170 170 173 179 182 187 185 188 198 204 212 200 169 204 221 247 281 299 304 292 285 298 289 290 302 300 292 297 295 287 279 276 268 261 263 264 264 260 253 250 247 250 255 257 257 259 259 259 263 264 261 258 251
240 233 208 211 200 184 179 167 164 184 226 208 175 209 195 164 182 184 180 188 178 179 185 181 183 179 172 176 173 170 171 165 165 175 178 174 172 170 172 174 169 167 168 168 171 171 173 176 174 177 173 171 177 179 182 177 181 208 207 254 283 326 333 328 327 307 299 305 302 293 300 306 299 295 293 290 285 279 274 271 268 267 265 261 255 254 256 256 256 258 258 257 262 266 265 263 258
222 236 219 218 209 189 205 195 172 184 223 230 195 204 197 172 186 183 190 197 181 183 188 183 183 181 182 180 172 173 172 167 171 178 175 171 172 171 171 174 169 168 169 170 171 169 168 165 163 166 161 157 161 161 164 176 212 223 296 303 309 332 327 321 335 325 316 316 311 308 312 308 306 310 307 303 300 297 291 287 283 278 274 272 265 260 259 260 262 263 258 252 255 261 268 274 274
206 226 233 237 213 178 203 200 174 188 222 224 217 220 193 180 193 192 203 204 189 190 192 191 190 185 188 182 174 177 174 169 176 180 177 172 173 171 171 174 172 170 171 169 167 163 161 159 159 161 156 154 151 145 145 117 97 358 344 330 328 329 327 338 340 332 327 325 322 319 315 312 318 319 312 314 314 308 305 301 298 291 285 283 274 261 258 261 266 268 260 254 257 260 269 278 276
207 197 215 251 264 204 221 200 158 210 238 209 208 227 215 188 204 213 213 205 198 204 200 198 198 192 194 189 179 180 177 173 178 185 182 174 173 173 172 176 175 171 170 166 161 160 159 156 156 155 149 147 142 134 129 64 14 347 339 332 334 326 321 339 327 317 319 323 322 317 316 316 321 324 322 327 327 321 318 315 311 304 300 298 288 275 269 267 270 273 269 271 274 270 274 277 275
255 174 185 219 266 256 252 231 161 234 247 203 193 222 236 213 205 206 209 207 203 210 207 201 202 198 199 198 186 183 182 177 179 185 184 176 176 177 175 177 177 172 168 165 162 160 158 155 153 152 147 145 145 144 143 107 328 319 324 319 315 308 312 316 307 303 312 320 319 316 319 319 320 324 326 332 332 330 329 326 322 314 308 309 304 293 286 285 285 282 282 285 282 278 277 274 278
21 15 192 187 222 243 251 246 222 239 248 214 198 230 250 240 209 197 203 209 207 211 211 204 204 202 200 201 194 188 185 181 182 186 185 179 177 179 178 179 179 174 168 167 166 161 157 155 152 151 150 147 149 153 165 168 201 272 283 297 298 298 315 316 311 317 321 313 312 312 315 316 317 320 322 327 331 331 332 330 327 323 317 316 314 307 301 298 292 284 288 292 285 283 282 278 282
114 117 233 178 213 240 236 233 235 226 219 236 227 220 236 248 234 211 204 213 213 206 205 208 209 204 201 201 196 191 187 184 185 187 188 182 180 182 181 180 181 174 169 170 167 161 158 155 154 154 152 152 156 161 167 169 170 200 235 265 294 308 316 314 313 316 312 307 310 309 310 310 308 309 311 315 321 324 328 329 327 328 326 323 320 316 311 307 299 289 291 290 283 282 283 283 284
127 172 212 191 211 233 231 240 257 243 225 240 238 221 213 235 246 224 199 203 220 213 202 209 214 207 201 200 199 193 187 187 187 189 190 184 183 185 182 181 181 173 170 171 168 164 159 156 158 157 155 157 161 166 170 176 188 201 232 274 296 314 315 311 309 306 304 307 307 309 312 308 303 303 303 304 308 314 320 322 323 326 329 328 325 322 318 315 310 305 304 296 288 285 284 285 285
198 200 203 196 198 204 231 234 242 254 247 242 244 226 204 214 251 244 206 188 198 217 219 212 209 207 202 199 201 196 188 188 189 189 190 185 184 185 184 183 179 173 171 172 170 166 161 159 161 159 159 163 165 174 184 193 213 215 236 288 300 310 310 305 304 301 302 307 308 312 314 308 306 305 302 303 306 311 314 312 315 320 324 324 323 323 320 318 315 311 309 304 298 293 289 285 282
214 216 202 202 202 195 223 226 212 237 246 236 248 240 215 225 244 249 256 227 201 201 220 227 211 202 200 198 201 199 189 188 189 188 189 186 181 186 189 183 176 174 173 171 170 167 162 162 164 162 163 167 172 180 193 206 216 213 232 286 292 295 301 297 293 292 292 303 306 308 310 310 311 307 305 307 308 312 313 309 312 316 317 319 319 319 318 317 315 312 310 308 304 302 299 293 285
209 215 204 207 215 207 218 230 223 235 238 216 214 231 250 268 260 239 244 259 254 211 196 231 230 205 198 197 200 201 194 189 188 187 190 187 179 188 194 182 174 177 174 172 171 167 164 164 165 167 168 171 178 185 196 209 213 218 239 271 275 273 289 285 277 287 295 302 304 306 309 307 304 303 304 306 306 307 306 304 309 311 313 318 317 317 318 316 314 312 312 311 309 310 307 302 296
207 222 222 218 230 231 228 234 232 241 244 205 171 168 245 257 289 266 245 322 307 290 203 209 236 223 205 196 195 201 200 191 188 188 190 190 181 185 192 182 176 181 178 176 174 167 165 167 168 172 172 175 184 189 197 207 211 221 234 253 263 261 276 276 265 275 284 292 300 302 303 300 298 300 302 302 301 301 300 298 301 304 307 313 315 315 315 314 315 314 314 314 313 315 312 307 306
202 219 223 217 224 234 247 255 255 271 278 211 173 202 248 251 174 182 217 200 236 267 249 210 220 228 225 209 196 198 201 194 190 188 189 194 185 180 186 182 179 187 184 179 177 171 169 170 172 176 176 181 189 192 196 201 211 223 228 239 252 254 257 254 249 254 269 287 300 302 300 296 294 295 297 298 297 297 296 294 294 294 299 305 307 309 310 310 312 312 313 315 315 317 317 313 310
184 205 227 223 223 239 249 246 242 260 272 248 218 235 234 242 236 195 183 195 202 206 227 224 216 214 223 223 201 195 200 197 193 188 186 193 183 171 182 187 186 191 190 184 180 176 173 172 174 178 179 185 190 192 196 196 207 224 225 230 243 249 247 249 252 254 267 280 289 295 297 295 292 291 291 294 297 296 294 290 288 287 291 296 298 303 307 307 308 307 308 310 313 317 319 318 316
199 193 217 215 226 267 277 263 221 223 249 251 238 249 240 234 246 174 157 186 208 195 204 216 214 211 219 226 209 197 201 201 199 191 183 187 177 165 177 191 195 192 187 189 187 178 175 175 176 179 181 186 188 190 196 194 205 226 227 227 236 243 244 247 248 247 258 273 281 290 297 299 296 291 287 289 292 292 290 287 284 284 286 289 293 300 305 306 308 309 305 303 307 314 316 317 317
250 241 215 211 210 222 238 251 241 222 236 247 229 233 249 249 219 156 156 188 213 202 201 210 222 215 213 226 219 201 199 201 201 192 181 182 176 169 175 187 200 197 188 191 191 181 178 177 178 182 182 185 189 190 194 198 208 223 225 227 233 234 238 240 240 245 255 265 276 286 296 300 300 295 290 289 289 288 289 288 287 288 288 289 292 297 304 309 312 309 304 304 310 315 314 313 317
247 278 239 221 225 219 206 205 242 250 239 252 247 229 245 262 201 165 151 151 197 237 214 202 234 229 209 220 224 207 200 194 190 192 190 181 174 174 175 183 201 203 191 190 192 187 182 178 178 183 182 184 190 190 194 200 210 219 218 223 229 225 228 234 235 244 254 265 282 290 292 294 296 296 292 289 287 286 287 288 289 292 293 294 294 294 301 307 310 308 305 307 314 317 315 313 317
210 240 230 215 217 237 227 196 220 249 253 257 266 255 248 68 91 118 100 107 197 249 236 200 225 241 223 218 218 211 202 184 176 189 191 176 174 176 175 185 203 202 189 189 195 193 186 179 179 184 184 186 191 192 195 199 205 214 219 223 225 221 224 232 236 243 255 270 279 280 283 285 286 290 290 288 287 286 287 288 290 292 293 293 293 293 298 302 304 305 304 305 309 312 314 313 314
192 209 226 227 218 220 230 217 216 234 255 256 256 259 228 98 96 110 105 120 208 237 260 224 208 229 242 231 216 207 202 192 182 181 179 176 180 177 175 195 210 202 189 191 193 190 186 182 182 185 187 190 193 193 193 196 202 211 221 224 225 225 225 231 239 245 257 269 272 270 275 276 277 284 287 286 288 287 286 287 287 289 290 290 289 291 295 297 298 300 298 300 305 309 313 313 313